Amy C. Mc Allister — WCZ9520 — position and weather

sailwx.info

Track history (hours):
 
Tides and Currents Weather Stations Pressure Air Temp Water Temp Dewpoint Dewpoint Depression Visibility Wind Speed Wind Dir Waves Ship Positions

Amy C. Mc Allister

More information available from US FCC via Universal Licensing System and Coast Guard Vessel Documentation Center.

Last reported at 2014-Sep-02 12:11 UTC. Time now 2014-Sep-03 02:31 UTC.
Position N 41°15' W 073°58'.

Length 27 m; draft 4.9 m.

Type: Towing. MMSI: 366995040.

Date/timePositionNaut miles runAvg speedWind from/ knotsBaromVisibWave heightAir tempDewpointWater temp
2014-Sep-02 12:11N 41°15' W 073°58'4 7.2
2014-Sep-02 11:33N 41°11' W 073°56'7 6.8
2014-Sep-02 10:33N 41°04' W 073°53'8 7.3
2014-Sep-02 09:30N 40°56' W 073°54'8 7.7
2014-Sep-02 08:26N 40°49' W 073°58'7 8.2
2014-Sep-02 07:34N 40°42' W 074°02'6 6.5
2014-Sep-02 06:33N 40°39' W 074°09'3 0.2
2014-Sep-01 15:05N 40°36' W 074°12'0 0.7
2014-Sep-01 14:30N 40°36' W 074°12'0 0.0
2014-Sep-01 13:32N 40°36' W 074°12'2 0.7
2014-Sep-01 11:10N 40°37' W 074°12'5 7.4
2014-Sep-01 10:33N 40°39' W 074°06'4 4.0
2014-Sep-01 09:34N 40°36' W 074°03'5 4.6
2014-Sep-01 08:33N 40°32' W 074°01'5 4.5
2014-Sep-01 07:33N 40°30' W 073°55'5 5.3
2014-Sep-01 06:32N 40°25' W 073°53'9 8.1
2014-Sep-01 05:27N 40°16' W 073°53'8 8.9
2014-Sep-01 04:33N 40°08' W 073°55'19 8.9
2014-Sep-01 02:27N 39°49' W 073°57'10 9.0
2014-Sep-01 01:22N 39°40' W 074°01'9 9.1
2014-Sep-01 00:24N 39°32' W 074°06'8 9.2
2014-Aug-31 23:30N 39°25' W 074°10'9 9.2
2014-Aug-31 22:32N 39°18' W 074°19'92 5.8
2014-Aug-31 06:30N 39°11' W 076°17'7 7.4
2014-Aug-31 05:34N 39°11' W 076°26'7 6.7
2014-Aug-31 04:34N 39°14' W 076°33'0 0.3
2014-Aug-31 03:34N 39°14' W 076°34'2 2.0
2014-Aug-31 02:34N 39°16' W 076°35'0 0.0
2014-Aug-31 01:34N 39°16' W 076°35'0 0.0
2014-Aug-31 00:34N 39°16' W 076°35'0 0.0
2014-Aug-30 23:33N 39°16' W 076°35'0 0.0
2014-Aug-30 22:33N 39°16' W 076°35'0 0.0
2014-Aug-30 21:33N 39°16' W 076°35'0 0.0
2014-Aug-30 20:34N 39°16' W 076°35'0 0.0
2014-Aug-30 19:34N 39°16' W 076°35'0 0.0
2014-Aug-30 18:34N 39°16' W 076°35'0 0.0
2014-Aug-30 17:34N 39°16' W 076°35'0 0.0
2014-Aug-30 16:33N 39°16' W 076°35'0 0.0
2014-Aug-30 15:34N 39°16' W 076°35'0 0.0
2014-Aug-30 14:34N 39°16' W 076°35'0 0.0
2014-Aug-30 13:34N 39°16' W 076°35'0 0.0
2014-Aug-30 12:34N 39°16' W 076°35'2 2.1
2014-Aug-30 11:34N 39°14' W 076°34'4 4.4
2014-Aug-30 10:34N 39°12' W 076°29'8 6.7
2014-Aug-30 09:20N 39°09' W 076°19'75 1.7
2014-Aug-28 14:13N 38°56' W 074°44'45 7.8
2014-Aug-28 08:27N 39°31' W 074°07'7 7.8
2014-Aug-28 07:33N 39°37' W 074°03'8 7.8
2014-Aug-28 06:31N 39°44' W 073°58'15 7.7
2014-Aug-28 04:33N 39°59' W 073°56'8 7.6
2014-Aug-28 03:33N 40°07' W 073°54'8 7.4
2014-Aug-28 02:32N 40°14' W 073°54'7 7.5
2014-Aug-28 01:33N 40°21' W 073°53'7 7.3
2014-Aug-28 00:33N 40°29' W 073°54'6 6.1
2014-Aug-27 23:34N 40°32' W 074°01'4 4.0
2014-Aug-27 22:34N 40°36' W 074°02'4 4.3
2014-Aug-27 21:33N 40°40' W 074°02'10 8.8
2014-Aug-27 20:28N 40°48' W 073°55'9 7.6
2014-Aug-27 19:17N 40°52' W 073°45'6 8.6
2014-Aug-27 18:33N 40°55' W 073°38'9 8.7
2014-Aug-27 17:33N 40°59' W 073°27'9 9.0
2014-Aug-27 16:33N 41°01' W 073°16'8 7.6
2014-Aug-27 15:33N 41°03' W 073°06'9 8.7
2014-Aug-27 14:33N 41°05' W 072°55'9 9.0
2014-Aug-27 13:33N 41°07' W 072°43'9 9.2
2014-Aug-27 12:33N 41°09' W 072°31'9 8.7
2014-Aug-27 11:33N 41°11' W 072°20'7 7.1
2014-Aug-27 10:33N 41°13' W 072°11'7 6.6
2014-Aug-27 09:33N 41°14' W 072°02'7 7.0
2014-Aug-27 08:33N 41°15' W 071°53'8 8.5
2014-Aug-27 07:33N 41°17' W 071°42'8 8.4
2014-Aug-27 06:33N 41°18' W 071°31'8 8.0
2014-Aug-27 05:33N 41°20' W 071°21'8 7.9
2014-Aug-27 04:33N 41°23' W 071°11'8 8.0
2014-Aug-27 03:33N 41°26' W 071°01'7 7.4
2014-Aug-27 02:33N 41°30' W 070°52'7 6.9
2014-Aug-27 01:33N 41°34' W 070°45'9 9.2
2014-Aug-27 00:33N 41°42' W 070°39'4 4.3
2014-Aug-26 23:34N 41°45' W 070°35'5 5.3
2014-Aug-26 22:33N 41°47' W 070°29'31 7.5
2014-Aug-26 18:21N 42°17' W 070°42'8 8.1
2014-Aug-26 17:21N 42°22' W 070°50'6 6.9
2014-Aug-26 16:29N 42°20' W 070°58'5 4.6
2014-Aug-26 15:28N 42°23' W 071°03'1 0.1
2014-Aug-26 07:10N 42°24' W 071°01'0 0.0
2014-Aug-26 06:33N 42°24' W 071°01'0 0.1
2014-Aug-26 05:32N 42°24' W 071°01'2 2.2
2014-Aug-26 04:27N 42°21' W 071°02'4 5.0
2014-Aug-26 03:33N 42°21' W 070°56'6 5.6
2014-Aug-26 02:29N 42°21' W 070°48'7 7.3
2014-Aug-26 01:32N 42°17' W 070°41'51 5.6
2014-Aug-25 16:32N 41°28' W 070°58'6 5.7
2014-Aug-25 15:33N 41°25' W 071°05'7 7.3
2014-Aug-25 14:33N 41°24' W 071°15'6 6.0
2014-Aug-25 13:33N 41°23' W 071°22'5 4.8
2014-Aug-25 12:33N 41°19' W 071°27'4 4.3
2014-Aug-25 11:33N 41°18' W 071°32'4 4.3
2014-Aug-25 10:33N 41°17' W 071°38'5 4.8
2014-Aug-25 09:33N 41°16' W 071°44'4 4.3
2014-Aug-25 08:33N 41°16' W 071°50'5 4.9
2014-Aug-25 07:33N 41°14' W 071°56'7 7.2
2014-Aug-25 06:33N 41°14' W 072°06'7 7.3
2014-Aug-25 05:33N 41°12' W 072°15'7 6.6
2014-Aug-25 04:33N 41°10' W 072°23'5 5.4
2014-Aug-25 03:33N 41°09' W 072°30'5 5.0
2014-Aug-25 02:33N 41°08' W 072°37'5 5.0
2014-Aug-25 01:33N 41°08' W 072°43'4 4.2
2014-Aug-25 00:33N 41°09' W 072°49'0 0.1
2014-Aug-24 23:33N 41°09' W 072°49'0 0.1
2014-Aug-24 22:33N 41°09' W 072°49'0 0.0
2014-Aug-24 21:33N 41°09' W 072°49'0 0.0
2014-Aug-24 20:33N 41°09' W 072°49'0 0.0
2014-Aug-24 19:33N 41°09' W 072°49'0 0.0
2014-Aug-24 18:33N 41°09' W 072°49'0 0.0
2014-Aug-24 17:33N 41°09' W 072°49'0 0.1
2014-Aug-24 16:33N 41°09' W 072°49'0 0.1
2014-Aug-24 15:33N 41°09' W 072°49'0 0.0
2014-Aug-24 14:33N 41°09' W 072°49'0 0.0
2014-Aug-24 13:33N 41°09' W 072°49'0 0.0
2014-Aug-24 12:33N 41°09' W 072°49'0 0.0
2014-Aug-24 11:33N 41°09' W 072°49'6 6.0
2014-Aug-24 10:33N 41°12' W 072°56'2 2.2
2014-Aug-24 09:33N 41°13' W 072°58'0 0.0
2014-Aug-24 08:33N 41°14' W 072°58'0 0.0
2014-Aug-24 07:33N 41°14' W 072°58'0 0.0
2014-Aug-24 06:33N 41°13' W 072°58'0 0.0
2014-Aug-24 05:33N 41°14' W 072°58'0 0.0
2014-Aug-24 04:33N 41°14' W 072°58'0 0.0
2014-Aug-24 03:33N 41°14' W 072°58'0 0.0
2014-Aug-24 02:33N 41°14' W 072°58'0 0.0
2014-Aug-24 01:33N 41°14' W 072°58'0 0.0
2014-Aug-24 00:33N 41°14' W 072°58'0 0.0
2014-Aug-23 23:33N 41°14' W 072°58'0 0.0
2014-Aug-23 22:33N 41°14' W 072°58'0 0.0
2014-Aug-23 21:33N 41°14' W 072°58'0 0.0
2014-Aug-23 20:33N 41°14' W 072°58'0 0.0
2014-Aug-23 19:33N 41°14' W 072°58'  
Track history (hours):
 
Tides and Currents Weather Stations Pressure Air Temp Water Temp Dewpoint Dewpoint Depression Visibility Wind Speed Wind Dir Waves Ship Positions

Amy C. Mc Allister

More information available from US FCC via Universal Licensing System and Coast Guard Vessel Documentation Center.

Last reported at 2014-Sep-02 12:11 UTC. Time now 2014-Sep-03 02:31 UTC.
Position N 41°15' W 073°58'.

Length 27 m; draft 4.9 m.

Type: Towing. MMSI: 366995040.

Date/timePositionNaut miles runAvg speedWind from/ knotsBaromVisibWave heightAir tempDewpointWater temp
2014-Sep-02 12:11N 41°15' W 073°58'4 7.2
2014-Sep-02 11:33N 41°11' W 073°56'7 6.8
2014-Sep-02 10:33N 41°04' W 073°53'8 7.3
2014-Sep-02 09:30N 40°56' W 073°54'8 7.7
2014-Sep-02 08:26N 40°49' W 073°58'7 8.2
2014-Sep-02 07:34N 40°42' W 074°02'6 6.5
2014-Sep-02 06:33N 40°39' W 074°09'3 0.2
2014-Sep-01 15:05N 40°36' W 074°12'0 0.7
2014-Sep-01 14:30N 40°36' W 074°12'0 0.0
2014-Sep-01 13:32N 40°36' W 074°12'2 0.7
2014-Sep-01 11:10N 40°37' W 074°12'5 7.4
2014-Sep-01 10:33N 40°39' W 074°06'4 4.0
2014-Sep-01 09:34N 40°36' W 074°03'5 4.6
2014-Sep-01 08:33N 40°32' W 074°01'5 4.5
2014-Sep-01 07:33N 40°30' W 073°55'5 5.3
2014-Sep-01 06:32N 40°25' W 073°53'9 8.1
2014-Sep-01 05:27N 40°16' W 073°53'8 8.9
2014-Sep-01 04:33N 40°08' W 073°55'19 8.9
2014-Sep-01 02:27N 39°49' W 073°57'10 9.0
2014-Sep-01 01:22N 39°40' W 074°01'9 9.1
2014-Sep-01 00:24N 39°32' W 074°06'8 9.2
2014-Aug-31 23:30N 39°25' W 074°10'9 9.2
2014-Aug-31 22:32N 39°18' W 074°19'92 5.8
2014-Aug-31 06:30N 39°11' W 076°17'7 7.4
2014-Aug-31 05:34N 39°11' W 076°26'7 6.7
2014-Aug-31 04:34N 39°14' W 076°33'0 0.3
2014-Aug-31 03:34N 39°14' W 076°34'2 2.0
2014-Aug-31 02:34N 39°16' W 076°35'0 0.0
2014-Aug-31 01:34N 39°16' W 076°35'0 0.0
2014-Aug-31 00:34N 39°16' W 076°35'0 0.0
2014-Aug-30 23:33N 39°16' W 076°35'0 0.0
2014-Aug-30 22:33N 39°16' W 076°35'0 0.0
2014-Aug-30 21:33N 39°16' W 076°35'0 0.0
2014-Aug-30 20:34N 39°16' W 076°35'0 0.0
2014-Aug-30 19:34N 39°16' W 076°35'0 0.0
2014-Aug-30 18:34N 39°16' W 076°35'0 0.0
2014-Aug-30 17:34N 39°16' W 076°35'0 0.0
2014-Aug-30 16:33N 39°16' W 076°35'0 0.0
2014-Aug-30 15:34N 39°16' W 076°35'0 0.0
2014-Aug-30 14:34N 39°16' W 076°35'0 0.0
2014-Aug-30 13:34N 39°16' W 076°35'0 0.0
2014-Aug-30 12:34N 39°16' W 076°35'2 2.1
2014-Aug-30 11:34N 39°14' W 076°34'4 4.4
2014-Aug-30 10:34N 39°12' W 076°29'8 6.7
2014-Aug-30 09:20N 39°09' W 076°19'75 1.7
2014-Aug-28 14:13N 38°56' W 074°44'45 7.8
2014-Aug-28 08:27N 39°31' W 074°07'7 7.8
2014-Aug-28 07:33N 39°37' W 074°03'8 7.8
2014-Aug-28 06:31N 39°44' W 073°58'15 7.7
2014-Aug-28 04:33N 39°59' W 073°56'8 7.6
2014-Aug-28 03:33N 40°07' W 073°54'8 7.4
2014-Aug-28 02:32N 40°14' W 073°54'7 7.5
2014-Aug-28 01:33N 40°21' W 073°53'7 7.3
2014-Aug-28 00:33N 40°29' W 073°54'6 6.1
2014-Aug-27 23:34N 40°32' W 074°01'4 4.0
2014-Aug-27 22:34N 40°36' W 074°02'4 4.3
2014-Aug-27 21:33N 40°40' W 074°02'10 8.8
2014-Aug-27 20:28N 40°48' W 073°55'9 7.6
2014-Aug-27 19:17N 40°52' W 073°45'6 8.6
2014-Aug-27 18:33N 40°55' W 073°38'9 8.7
2014-Aug-27 17:33N 40°59' W 073°27'9 9.0
2014-Aug-27 16:33N 41°01' W 073°16'8 7.6
2014-Aug-27 15:33N 41°03' W 073°06'9 8.7
2014-Aug-27 14:33N 41°05' W 072°55'9 9.0
2014-Aug-27 13:33N 41°07' W 072°43'9 9.2
2014-Aug-27 12:33N 41°09' W 072°31'9 8.7
2014-Aug-27 11:33N 41°11' W 072°20'7 7.1
2014-Aug-27 10:33N 41°13' W 072°11'7 6.6
2014-Aug-27 09:33N 41°14' W 072°02'7 7.0
2014-Aug-27 08:33N 41°15' W 071°53'8 8.5
2014-Aug-27 07:33N 41°17' W 071°42'8 8.4
2014-Aug-27 06:33N 41°18' W 071°31'8 8.0
2014-Aug-27 05:33N 41°20' W 071°21'8 7.9
2014-Aug-27 04:33N 41°23' W 071°11'8 8.0
2014-Aug-27 03:33N 41°26' W 071°01'7 7.4
2014-Aug-27 02:33N 41°30' W 070°52'7 6.9
2014-Aug-27 01:33N 41°34' W 070°45'9 9.2
2014-Aug-27 00:33N 41°42' W 070°39'4 4.3
2014-Aug-26 23:34N 41°45' W 070°35'5 5.3
2014-Aug-26 22:33N 41°47' W 070°29'31 7.5
2014-Aug-26 18:21N 42°17' W 070°42'8 8.1
2014-Aug-26 17:21N 42°22' W 070°50'6 6.9
2014-Aug-26 16:29N 42°20' W 070°58'5 4.6
2014-Aug-26 15:28N 42°23' W 071°03'1 0.1
2014-Aug-26 07:10N 42°24' W 071°01'0 0.0
2014-Aug-26 06:33N 42°24' W 071°01'0 0.1
2014-Aug-26 05:32N 42°24' W 071°01'2 2.2
2014-Aug-26 04:27N 42°21' W 071°02'4 5.0
2014-Aug-26 03:33N 42°21' W 070°56'6 5.6
2014-Aug-26 02:29N 42°21' W 070°48'7 7.3
2014-Aug-26 01:32N 42°17' W 070°41'51 5.6
2014-Aug-25 16:32N 41°28' W 070°58'6 5.7
2014-Aug-25 15:33N 41°25' W 071°05'7 7.3
2014-Aug-25 14:33N 41°24' W 071°15'6 6.0
2014-Aug-25 13:33N 41°23' W 071°22'5 4.8
2014-Aug-25 12:33N 41°19' W 071°27'4 4.3
2014-Aug-25 11:33N 41°18' W 071°32'4 4.3
2014-Aug-25 10:33N 41°17' W 071°38'5 4.8
2014-Aug-25 09:33N 41°16' W 071°44'4 4.3
2014-Aug-25 08:33N 41°16' W 071°50'5 4.9
2014-Aug-25 07:33N 41°14' W 071°56'7 7.2
2014-Aug-25 06:33N 41°14' W 072°06'7 7.3
2014-Aug-25 05:33N 41°12' W 072°15'7 6.6
2014-Aug-25 04:33N 41°10' W 072°23'5 5.4
2014-Aug-25 03:33N 41°09' W 072°30'5 5.0
2014-Aug-25 02:33N 41°08' W 072°37'5 5.0
2014-Aug-25 01:33N 41°08' W 072°43'4 4.2
2014-Aug-25 00:33N 41°09' W 072°49'0 0.1
2014-Aug-24 23:33N 41°09' W 072°49'0 0.1
2014-Aug-24 22:33N 41°09' W 072°49'0 0.0
2014-Aug-24 21:33N 41°09' W 072°49'0 0.0
2014-Aug-24 20:33N 41°09' W 072°49'0 0.0
2014-Aug-24 19:33N 41°09' W 072°49'0 0.0
2014-Aug-24 18:33N 41°09' W 072°49'0 0.0
2014-Aug-24 17:33N 41°09' W 072°49'0 0.1
2014-Aug-24 16:33N 41°09' W 072°49'0 0.1
2014-Aug-24 15:33N 41°09' W 072°49'0 0.0
2014-Aug-24 14:33N 41°09' W 072°49'0 0.0
2014-Aug-24 13:33N 41°09' W 072°49'0 0.0
2014-Aug-24 12:33N 41°09' W 072°49'0 0.0
2014-Aug-24 11:33N 41°09' W 072°49'6 6.0
2014-Aug-24 10:33N 41°12' W 072°56'2 2.2
2014-Aug-24 09:33N 41°13' W 072°58'0 0.0
2014-Aug-24 08:33N 41°14' W 072°58'0 0.0
2014-Aug-24 07:33N 41°14' W 072°58'0 0.0
2014-Aug-24 06:33N 41°13' W 072°58'0 0.0
2014-Aug-24 05:33N 41°14' W 072°58'0 0.0
2014-Aug-24 04:33N 41°14' W 072°58'0 0.0
2014-Aug-24 03:33N 41°14' W 072°58'0 0.0
2014-Aug-24 02:33N 41°14' W 072°58'0 0.0
2014-Aug-24 01:33N 41°14' W 072°58'0 0.0
2014-Aug-24 00:33N 41°14' W 072°58'0 0.0
2014-Aug-23 23:33N 41°14' W 072°58'0 0.0
2014-Aug-23 22:33N 41°14' W 072°58'0 0.0
2014-Aug-23 21:33N 41°14' W 072°58'0 0.0
2014-Aug-23 20:33N 41°14' W 072°58'0 0.0
2014-Aug-23 19:33N 41°14' W 072°58'  

Dump ship's entire track history